SL-14 DEB, 45306

Orbit data source: Space-Track

SL-14 DEB, 45306 is space debris in LEO originally from a launch on Thu, 15 Aug 1991 UTC launched from the Plesetsk Missile And Space Complex (PKMTR). Debris objects in space refer to the collection of defunct objects orbiting the Earth. Examples of debris include non-operational satellites, rocket bodies, and fragments generated from explosions, collisions, or faulty payload assembly.

Loading next visibility...
Identifier
45306, 1991-056AU
Orbit
LEO
Country
Flag of CISCIS
Related business
Manufacturer
Unknown
Mission
Spacecraft
Bus & Motor
Unknown
Mass
Unknown
Launch date (UTC)
1991-08-15 (35 years ago)
Launch vehicle
Unknown
Launch site
Plesetsk Missile And Space Complex (PKMTR)
Object type
Payload
Rocket body
Debris
Shape & HBR
Unknown shape, 0.2 m
Radar Cross Section
Medium (>0.1 m² and <1 m²)

Expand to show TLE details & history
Last TLE update: 21 hours ago

TLE from 21 hours ago
0 SL-14 DEB
1 45306U 91056AU  26206.29290715  .00003184  00000-0  48322-2 0  9997
2 45306  82.6067  58.7324 0089229  97.2159 263.9137 13.50421454315369
Epoch: 2026-07-25T07:01Z
TLE epoch observation values (Epoch: 2026-07-25T07:01:47.177Z)
Latitude
-0.00001°
Longitude
10.27855°
Altitude
1,081.199 km
Speed
7.308 km/s
True Right ascension
03h 54m 55s
True Declination
0° 00' 00"
Sunlit
Object was in daylight at epoch
Visualization orbit readout
Latitude
Unknown
Longitude
Unknown
Altitude
Unknown
Speed
Unknown
Apparent Right ascension
Unknown
Apparent Declination
Unknown
Sunlit
N/A
Visualization observer readout
Local Sidereal Time
17:02:28
Azimuth
Unknown
Elevation
Unknown
Doppler factor
Unknown
Orbital elements
Apogee altitude
1,134.344 km
Perigee altitude
1,001.464 km
Semi-major axis
7,446.041 km
Eccentricity
0.00892
Inclination
82.6067°
RAAN
58.7324°
Arg. of periapsis
97.2159°
True anomaly
262.89823°
Mean anomaly
263.9137°
Eccentric anomaly
263.40584°
Mean motion
3.37796 °/min
Orbital period
106.57 mins
BSTAR
0.0048322
Loading maneuver chart data...
Computing Atmospheric mass density...
Loading historical data...
Loading historical data...
Loading historical data...
Loading historical data...
Loading historical data...
Loading historical data...
Loading historical data...

Documentation

Showing up to 5 results
|